Regional Weather Roundup
Issued by NWS

Home | Current Version | Previous Version | Graphics & Text | Print | Product List | Glossary On
Versions: 1 2 3 4 5 6 7 8 9 10 11 12 13 14 15 16 17 18 19 20 21 22 23 24 25 26 27
000
ASUS45 KPSR 191010
RWRAZ

ARIZONA HOURLY REGIONAL WEATHER ROUNDUP
NATIONAL WEATHER SERVICE PHOENIX AZ
300 AM MST TUE SEP 19 2017

NOTE: FAIR INDICATES FEW OR NO CLOUDS BELOW 12,000 FEET WITH NO
SIGNIFICANT WEATHER AND/OR OBSTRUCTIONS TO VISIBILITY.

AZZ001>003-036-191100-
NORTHWEST ARIZONA

CITY           SKY/WX    TMP DP  RH WIND       PRES   REMARKS
BULLHEAD CITY  CLEAR     77  39  25 S6        29.74S
KINGMAN        CLEAR     67  43  41 S12       29.90S
$$

AZZ004>008-015-016-018-191100-
NORTH CENTRAL ARIZONA

CITY           SKY/WX    TMP DP  RH WIND       PRES   REMARKS
GRAND CANYON   CLEAR     36  25  64 CALM      30.09S
WILLIAMS       CLEAR     52  25  35 S8        30.09S
PRESCOTT       CLEAR     55  32  41 S6        30.02F
FLAGSTAFF      CLEAR     44  26  49 W3        30.12S
PAYSON           N/A     54  21  28 CALM      30.07F
PAGE           CLEAR     65  25  22 SW5       29.90S
$$

AZZ009>014-017-191100-
NORTHEAST ARIZONA

CITY           SKY/WX    TMP DP  RH WIND       PRES   REMARKS
WINSLOW        CLEAR     50  22  33 SE8       29.99F
SAINT JOHNS    CLEAR     49  29  46 S5        30.07F
WINDOW ROCK    PTCLDY    48  19  31 S6        30.12S
SHOW LOW       CLEAR     61  30  31 S21G29    30.11S
$$

AZZ540-542>544-546-548-191100-
GREATER PHOENIX AREA

CITY           SKY/WX    TMP DP  RH WIND       PRES   REMARKS
PHOENIX        CLEAR     76  44  32 E8        29.81F
BUCKEYE        CLEAR     68  28  22 NE6       29.81F
LUKE AFB       CLEAR     77  36  22 CALM      29.81R
DEER VALLEY    CLEAR     68  33  27 E6        29.83S
SCOTTSDALE     CLEAR     73  38  27 E3        29.86S
MESA-GATEWAY   CLEAR     68  32  26 E8        29.85F
$$

AZZ539-553-191100-
SOUTHWEST MARICOPA COUNTY AND PINAL COUNTY

CITY           SKY/WX    TMP DP  RH WIND       PRES   REMARKS
CASA GRANDE    NOT AVBL
GILA BEND      FAIR      75  31  20 SE10      29.78F
$$

AZZ503-504-507>509-191100-
SOUTHEAST ARIZONA

CITY           SKY/WX    TMP DP  RH WIND       PRES   REMARKS
TUCSON         CLEAR     75  57  53 SW6       29.97F
DAVIS-MONTHAN  PTCLDY    76  56  49 S7        29.95F
NOGALES        CLEAR     69  60  73 S6        30.05F
SIERRA VISTA   CLEAR     70  57  64 SW6       30.10F
DOUGLAS        PTCLDY    68  50  52 S6        30.06S
SAFFORD        CLEAR     67  31  26 CALM      29.96S
$$

AZZ532-191100-
SOUTHWEST ARIZONA

CITY           SKY/WX    TMP DP  RH WIND       PRES   REMARKS
YUMA           NOT AVBL
$$

CAZ041-043-047-048-061-525>527-560>570-191100-
SOUTHERN CALIFORNIA

CITY           SKY/WX    TMP DP  RH WIND       PRES   REMARKS
DOWNTOWN L.A.  CLOUDY    69  60  73 CALM      29.91S
L.A. AIRPORT   CLOUDY    66  61  84 CALM      29.92S
SAN DIEGO      CLOUDY    68  59  73 E3        29.93F
BURBANK        CLOUDY    65  58  78 SE3       29.92S
ONTARIO        CLOUDY    65  59  81 SW8       29.92F HAZE
RIVERSIDE      CLOUDY    65  61  87 W6        29.92F
PALM SPRINGS   CLEAR     74  58  57 VRB5      29.77F
IMPERIAL       CLEAR     76  43  30 CALM      29.74S
BLYTHE         CLEAR     80  51  36 S9        29.75S
NEEDLES        CLEAR     81  50  33 SW10      29.76S
$$

NVZ020-UTZ003-191100-
SOUTHERN NEVADA-UTAH

CITY           SKY/WX    TMP DP  RH WIND       PRES   REMARKS
LAS VEGAS      MOCLDY    78  36  21 S10G16    29.74F
SALT LAKE CITY LGT RAIN  60  54  80 SE8       29.73F
$$

NMZ009-TXZ055-191100-
NEW MEXICO-WEST TEXAS

CITY           SKY/WX    TMP DP  RH WIND       PRES   REMARKS
ALBUQUERQUE    CLEAR     61  26  26 SE5       30.08F
EL PASO        PTCLDY    74  57  55 S10       30.01S
$$


........................KEY........................
SKY/WX - SKY CONDITION/WEATHER
TMP    - TEMPERATURE IN FAHRENHEIT
DP     - DEW POINT IN FAHRENHEIT
RH     - RELATIVE HUMIDITY IN PERCENT
WIND   - DIRECTION AND SPEED IN MILES PER HOUR (MPH)
VRB    - VARIABLE WIND DIRECTION
PRES   - MEAN SEA LEVEL PRESSURE IN INCHES OF MERCURY
         F - FALLING PRESSURE   R - RISING PRESSURE
         S - STEADY PRESSURE
VSB    - VISIBILITY IN MILES
HX     - HEAT INDEX IN FAHRENHEIT
WCI    - WIND CHILL INDEX IN FAHRENHEIT
TC     - TEMPERATURE IN CELSIUS WHICH IS ALSO KNOWN AS
         TEMPERATURE IN CENTIGRADE
AFB    - AIR FORCE BASE
         LUKE AFB IS LUKE AIR FORCE BASE
         DAVIS-MONTHAN IS DAVIS-MONTHAN AIR FORCE BASE
NAS    - NAVAL AIR STATION
         EL CENTRO NAS IS EL CENTRO NAVAL AIR STATION
N/A    - NOT AVAILABLE





USA.gov is the U.S. government's official web portal to all federal, state and local government web resources and services.